Year,Month,Day,Hour,Minute,Value (Times are PST for temperature in C)
2002,05,31,00,00,10.60
2002,05,31,00,01,10.60
2002,05,31,00,02,10.60
2002,05,31,00,03,10.60
2002,05,31,00,04,10.60
2002,05,31,00,05,10.60
2002,05,31,00,06,10.50
2002,05,31,00,07,10.60
2002,05,31,00,08,10.60
2002,05,31,00,09,10.60
2002,05,31,00,10,10.60
2002,05,31,00,11,10.70
2002,05,31,00,12,10.80
2002,05,31,00,13,10.90
2002,05,31,00,14,10.90
2002,05,31,00,15,10.90
2002,05,31,00,16,10.90
2002,05,31,00,17,11.10
2002,05,31,00,18,11.10
2002,05,31,00,19,11.10
2002,05,31,00,20,11.10
2002,05,31,00,21,11.10
2002,05,31,00,22,11.20
2002,05,31,00,23,11.20
2002,05,31,00,24,11.30
2002,05,31,00,25,11.30
2002,05,31,00,26,11.40
2002,05,31,00,27,11.40
2002,05,31,00,28,11.40
2002,05,31,00,29,11.40
2002,05,31,00,30,11.40
2002,05,31,00,31,11.40
2002,05,31,00,32,11.40
2002,05,31,00,33,11.40
2002,05,31,00,34,11.50
2002,05,31,00,35,11.40
2002,05,31,00,36,11.50
2002,05,31,00,37,11.40
2002,05,31,00,38,11.50
2002,05,31,00,39,11.50
2002,05,31,00,40,11.60
2002,05,31,00,41,11.60
2002,05,31,00,42,11.60
2002,05,31,00,43,11.60
2002,05,31,00,44,11.60
2002,05,31,00,45,11.60
2002,05,31,00,46,11.60
2002,05,31,00,47,11.60
2002,05,31,00,48,11.60
2002,05,31,00,49,11.60
2002,05,31,00,50,11.60
2002,05,31,00,51,11.70
2002,05,31,00,52,11.70
2002,05,31,00,53,11.70
2002,05,31,00,54,11.70
2002,05,31,00,55,11.70
2002,05,31,00,56,11.70
2002,05,31,00,57,11.70
2002,05,31,00,58,11.70
2002,05,31,00,59,11.70
2002,05,31,01,00,11.70
2002,05,31,01,01,11.70
2002,05,31,01,02,11.60
2002,05,31,01,03,11.60
2002,05,31,01,04,11.60
2002,05,31,01,05,11.60
2002,05,31,01,06,11.50
2002,05,31,01,07,11.40
2002,05,31,01,08,11.30
2002,05,31,01,09,11.20
2002,05,31,01,10,11.10
2002,05,31,01,11,11.00
2002,05,31,01,12,10.80
2002,05,31,01,13,10.70
2002,05,31,01,14,10.70
2002,05,31,01,15,10.70
2002,05,31,01,16,10.60
2002,05,31,01,17,10.60
2002,05,31,01,18,10.60
2002,05,31,01,19,10.50
2002,05,31,01,20,10.40
2002,05,31,01,21,10.40
2002,05,31,01,22,10.40
2002,05,31,01,23,10.40
2002,05,31,01,24,10.40
2002,05,31,01,25,10.40
2002,05,31,01,26,10.40
2002,05,31,01,27,10.40
2002,05,31,01,28,10.40
2002,05,31,01,29,10.40
2002,05,31,01,30,10.40
2002,05,31,01,31,10.40
2002,05,31,01,32,10.40
2002,05,31,01,33,10.40
2002,05,31,01,34,10.40
2002,05,31,01,35,10.40
2002,05,31,01,36,10.30
2002,05,31,01,37,10.30
2002,05,31,01,38,10.20
2002,05,31,01,39,10.20
2002,05,31,01,40,10.10
2002,05,31,01,41,10.10
2002,05,31,01,42,10.10
2002,05,31,01,43,10.00
2002,05,31,01,44,9.90
2002,05,31,01,45,9.90
2002,05,31,01,46,9.90
2002,05,31,01,47,9.80
2002,05,31,01,48,9.80
2002,05,31,01,49,9.80
2002,05,31,01,50,9.70
2002,05,31,01,51,9.70
2002,05,31,01,52,9.70
2002,05,31,01,53,9.70
2002,05,31,01,54,9.70
2002,05,31,01,55,9.70
2002,05,31,01,56,9.70
2002,05,31,01,57,9.60
2002,05,31,01,58,9.60
2002,05,31,01,59,9.60
2002,05,31,02,00,9.50
2002,05,31,02,01,9.50
2002,05,31,02,02,9.50
2002,05,31,02,03,9.50
2002,05,31,02,04,9.40
2002,05,31,02,05,9.40
2002,05,31,02,06,9.40
2002,05,31,02,07,9.30
2002,05,31,02,08,9.30
2002,05,31,02,09,9.20
2002,05,31,02,10,9.20
2002,05,31,02,11,9.20
2002,05,31,02,12,9.20
2002,05,31,02,13,9.10
2002,05,31,02,14,9.10
2002,05,31,02,15,9.10
2002,05,31,02,16,9.00
2002,05,31,02,17,9.00
2002,05,31,02,18,9.00
2002,05,31,02,19,8.90
2002,05,31,02,20,8.90
2002,05,31,02,21,8.90
2002,05,31,02,22,8.90
2002,05,31,02,23,8.90
2002,05,31,02,24,8.80
2002,05,31,02,25,8.80
2002,05,31,02,26,8.80
2002,05,31,02,27,8.80
2002,05,31,02,28,8.70
2002,05,31,02,29,8.70
2002,05,31,02,30,8.70
2002,05,31,02,31,8.70
2002,05,31,02,32,8.70
2002,05,31,02,33,8.70
2002,05,31,02,34,8.60
2002,05,31,02,35,8.60
2002,05,31,02,36,8.60
2002,05,31,02,37,8.50
2002,05,31,02,38,8.50
2002,05,31,02,39,8.50
2002,05,31,02,40,8.50
2002,05,31,02,41,8.40
2002,05,31,02,42,8.40
2002,05,31,02,43,8.40
2002,05,31,02,44,8.40
2002,05,31,02,45,8.40
2002,05,31,02,46,8.40
2002,05,31,02,47,8.40
2002,05,31,02,48,8.40
2002,05,31,02,49,8.40
2002,05,31,02,50,8.40
2002,05,31,02,51,8.30
2002,05,31,02,52,8.30
2002,05,31,02,53,8.30
2002,05,31,02,54,8.20
2002,05,31,02,55,8.20
2002,05,31,02,56,8.20
2002,05,31,02,57,8.20
2002,05,31,02,58,8.20
2002,05,31,02,59,8.20
2002,05,31,03,00,8.20
2002,05,31,03,01,8.20
2002,05,31,03,02,8.20
2002,05,31,03,03,8.20
2002,05,31,03,04,8.20
2002,05,31,03,05,8.20
2002,05,31,03,06,8.20
2002,05,31,03,07,8.20
2002,05,31,03,08,8.20
2002,05,31,03,09,8.20
2002,05,31,03,10,8.20
2002,05,31,03,11,8.20
2002,05,31,03,12,8.20
2002,05,31,03,13,8.20
2002,05,31,03,14,8.20
2002,05,31,03,15,8.20
2002,05,31,03,16,8.20
2002,05,31,03,17,8.20
2002,05,31,03,18,8.20
2002,05,31,03,19,8.20
2002,05,31,03,20,8.20
2002,05,31,03,21,8.20
2002,05,31,03,22,8.20
2002,05,31,03,23,8.20
2002,05,31,03,24,8.20
2002,05,31,03,25,8.20
2002,05,31,03,26,8.20
2002,05,31,03,27,8.20
2002,05,31,03,28,8.20
2002,05,31,03,29,8.20
2002,05,31,03,30,8.20
2002,05,31,03,31,8.20
2002,05,31,03,32,8.30
2002,05,31,03,33,8.30
2002,05,31,03,34,8.30
2002,05,31,03,35,8.40
2002,05,31,03,36,8.40
2002,05,31,03,37,8.40
2002,05,31,03,38,8.40
2002,05,31,03,39,8.30
2002,05,31,03,40,8.30
2002,05,31,03,41,8.30
2002,05,31,03,42,8.30
2002,05,31,03,43,8.30
2002,05,31,03,44,8.30
2002,05,31,03,45,8.30
2002,05,31,03,46,8.30
2002,05,31,03,47,8.30
2002,05,31,03,48,8.30
2002,05,31,03,49,8.30
2002,05,31,03,50,8.20
2002,05,31,03,51,8.20
2002,05,31,03,52,8.20
2002,05,31,03,53,8.20
2002,05,31,03,54,8.20
2002,05,31,03,55,8.10
2002,05,31,03,56,8.10
2002,05,31,03,57,8.10
2002,05,31,03,58,8.10
2002,05,31,03,59,8.00
2002,05,31,04,00,8.00
2002,05,31,04,01,8.00
2002,05,31,04,02,8.00
2002,05,31,04,03,8.00
2002,05,31,04,04,8.00
2002,05,31,04,05,8.00
2002,05,31,04,06,8.00
2002,05,31,04,07,8.00
2002,05,31,04,08,7.90
2002,05,31,04,09,7.90
2002,05,31,04,10,7.90
2002,05,31,04,11,7.90
2002,05,31,04,12,7.90
2002,05,31,04,13,7.90
2002,05,31,04,14,8.00
2002,05,31,04,15,8.00
2002,05,31,04,16,8.10
2002,05,31,04,17,8.20
2002,05,31,04,18,8.30
2002,05,31,04,19,8.40
2002,05,31,04,20,8.50
2002,05,31,04,21,8.70
2002,05,31,04,22,8.70
2002,05,31,04,23,8.70
2002,05,31,04,24,8.70
2002,05,31,04,25,8.70
2002,05,31,04,26,8.70
2002,05,31,04,27,8.70
2002,05,31,04,28,8.70
2002,05,31,04,29,8.70
2002,05,31,04,30,8.60
2002,05,31,04,31,8.60
2002,05,31,04,32,8.50
2002,05,31,04,33,8.50
2002,05,31,04,34,8.40
2002,05,31,04,35,8.40
2002,05,31,04,36,8.30
2002,05,31,04,37,8.20
2002,05,31,04,38,8.20
2002,05,31,04,39,8.20
2002,05,31,04,40,8.10
2002,05,31,04,41,8.10
2002,05,31,04,42,8.10
2002,05,31,04,43,8.00
2002,05,31,04,44,8.00
2002,05,31,04,45,8.00
2002,05,31,04,46,8.00
2002,05,31,04,47,8.00
2002,05,31,04,48,8.00
2002,05,31,04,49,7.90
2002,05,31,04,50,7.90
2002,05,31,04,51,7.90
2002,05,31,04,52,7.90
2002,05,31,04,53,7.90
2002,05,31,04,54,7.90
2002,05,31,04,55,7.90
2002,05,31,04,56,7.80
2002,05,31,04,57,7.80
2002,05,31,04,58,7.80
2002,05,31,04,59,7.80
2002,05,31,05,00,7.80
2002,05,31,05,01,7.80
2002,05,31,05,02,7.80
2002,05,31,05,03,7.80
2002,05,31,05,04,7.80
2002,05,31,05,05,7.80
2002,05,31,05,06,7.80
2002,05,31,05,07,7.70
2002,05,31,05,08,7.70
2002,05,31,05,09,7.70
2002,05,31,05,10,7.70
2002,05,31,05,11,7.70
2002,05,31,05,12,7.70
2002,05,31,05,13,7.70
2002,05,31,05,14,7.70
2002,05,31,05,15,7.70
2002,05,31,05,16,7.70
2002,05,31,05,17,7.70
2002,05,31,05,18,7.70
2002,05,31,05,19,7.70
2002,05,31,05,20,7.70
2002,05,31,05,21,7.70
2002,05,31,05,22,7.60
2002,05,31,05,23,7.60
2002,05,31,05,24,7.60
2002,05,31,05,25,7.70
2002,05,31,05,26,7.70
2002,05,31,05,27,7.70
2002,05,31,05,28,7.70
2002,05,31,05,29,7.80
2002,05,31,05,30,7.80
2002,05,31,05,31,7.80
2002,05,31,05,32,7.80
2002,05,31,05,33,7.80
2002,05,31,05,34,7.80
2002,05,31,05,35,7.70
2002,05,31,05,36,7.70
2002,05,31,05,37,7.60
2002,05,31,05,38,7.60
2002,05,31,05,39,7.50
2002,05,31,05,40,7.50
2002,05,31,05,41,7.50
2002,05,31,05,42,7.40
2002,05,31,05,43,7.40
2002,05,31,05,44,7.30
2002,05,31,05,45,7.30
2002,05,31,05,46,7.30
2002,05,31,05,47,7.30
2002,05,31,05,48,7.30
2002,05,31,05,49,7.30
2002,05,31,05,50,7.20
2002,05,31,05,51,7.30
2002,05,31,05,52,7.30
2002,05,31,05,53,7.30
2002,05,31,05,54,7.30
2002,05,31,05,55,7.40
2002,05,31,05,56,7.40
2002,05,31,05,57,7.50
2002,05,31,05,58,7.60
2002,05,31,05,59,7.60
2002,05,31,06,00,7.70
2002,05,31,06,01,7.80
2002,05,31,06,02,7.80
2002,05,31,06,03,7.80
2002,05,31,06,04,7.80
2002,05,31,06,05,7.90
2002,05,31,06,06,7.90
2002,05,31,06,07,7.90
2002,05,31,06,08,8.00
2002,05,31,06,09,8.10
2002,05,31,06,10,8.10
2002,05,31,06,11,8.20
2002,05,31,06,12,8.20
2002,05,31,06,13,8.20
2002,05,31,06,14,8.30
2002,05,31,06,15,8.30
2002,05,31,06,16,8.40
2002,05,31,06,17,8.40
2002,05,31,06,18,8.50
2002,05,31,06,19,8.50
2002,05,31,06,20,8.50
2002,05,31,06,21,8.50
2002,05,31,06,22,8.50
2002,05,31,06,23,8.50
2002,05,31,06,24,8.50
2002,05,31,06,25,8.50
2002,05,31,06,26,8.60
2002,05,31,06,27,8.70
2002,05,31,06,28,8.70
2002,05,31,06,29,8.70
2002,05,31,06,30,8.80
2002,05,31,06,31,8.90
2002,05,31,06,32,8.90
2002,05,31,06,33,9.00
2002,05,31,06,34,9.10
2002,05,31,06,35,9.20
2002,05,31,06,36,9.40
2002,05,31,06,37,9.50
2002,05,31,06,38,9.60
2002,05,31,06,39,9.70
2002,05,31,06,40,9.80
2002,05,31,06,41,10.00
2002,05,31,06,42,10.10
2002,05,31,06,43,10.20
2002,05,31,06,44,10.40
2002,05,31,06,45,10.50
2002,05,31,06,46,10.60
2002,05,31,06,47,10.70
2002,05,31,06,48,10.80
2002,05,31,06,49,10.90
2002,05,31,06,50,11.00
2002,05,31,06,51,11.10
2002,05,31,06,52,11.20
2002,05,31,06,53,11.20
2002,05,31,06,54,11.30
2002,05,31,06,55,11.30
2002,05,31,06,56,11.40
2002,05,31,06,57,11.40
2002,05,31,06,58,11.40
2002,05,31,06,59,11.50
2002,05,31,07,00,11.60
2002,05,31,07,01,11.60
2002,05,31,07,02,11.70
2002,05,31,07,03,11.70
2002,05,31,07,04,11.80
2002,05,31,07,05,11.80
2002,05,31,07,06,11.90
2002,05,31,07,07,11.90
2002,05,31,07,08,12.00
2002,05,31,07,09,12.00
2002,05,31,07,10,12.00
2002,05,31,07,11,11.90
2002,05,31,07,12,11.90
2002,05,31,07,13,11.90
2002,05,31,07,14,11.90
2002,05,31,07,15,11.90
2002,05,31,07,16,11.80
2002,05,31,07,17,11.80
2002,05,31,07,18,11.80
2002,05,31,07,19,11.80
2002,05,31,07,20,11.80
2002,05,31,07,21,11.80
2002,05,31,07,22,11.90
2002,05,31,07,23,12.00
2002,05,31,07,24,12.00
2002,05,31,07,25,12.00
2002,05,31,07,26,12.10
2002,05,31,07,27,12.10
2002,05,31,07,28,12.20
2002,05,31,07,29,12.40
2002,05,31,07,30,12.50
2002,05,31,07,31,12.70
2002,05,31,07,32,12.90
2002,05,31,07,33,13.00
2002,05,31,07,34,13.10
2002,05,31,07,35,13.30
2002,05,31,07,36,13.30
2002,05,31,07,37,13.40
2002,05,31,07,38,13.50
2002,05,31,07,39,13.60
2002,05,31,07,40,13.60
2002,05,31,07,41,13.70
2002,05,31,07,42,13.70
2002,05,31,07,43,13.70
2002,05,31,07,44,13.60
2002,05,31,07,45,13.60
2002,05,31,07,46,13.60
2002,05,31,07,47,13.60
2002,05,31,07,48,13.70
2002,05,31,07,49,13.70
2002,05,31,07,50,13.70
2002,05,31,07,51,13.70
2002,05,31,07,52,13.80
2002,05,31,07,53,13.90
2002,05,31,07,54,14.00
2002,05,31,07,55,14.00
2002,05,31,07,56,14.00
2002,05,31,07,57,14.10
2002,05,31,07,58,14.20
2002,05,31,07,59,14.20
2002,05,31,08,00,14.20
2002,05,31,08,01,14.30
2002,05,31,08,02,14.30
2002,05,31,08,03,14.40
2002,05,31,08,04,14.40
2002,05,31,08,05,14.50
2002,05,31,08,06,14.50
2002,05,31,08,07,14.60
2002,05,31,08,08,14.60
2002,05,31,08,09,14.60
2002,05,31,08,10,14.60
2002,05,31,08,11,14.60
2002,05,31,08,12,14.40
2002,05,31,08,13,14.40
2002,05,31,08,14,14.20
2002,05,31,08,15,14.30
2002,05,31,08,16,14.30
2002,05,31,08,17,14.40
2002,05,31,08,18,14.50
2002,05,31,08,19,14.50
2002,05,31,08,20,14.50
2002,05,31,08,21,14.50
2002,05,31,08,22,14.60
2002,05,31,08,23,14.60
2002,05,31,08,24,14.50
2002,05,31,08,25,14.40
2002,05,31,08,26,14.30
2002,05,31,08,27,14.40
2002,05,31,08,28,14.40
2002,05,31,08,29,14.50
2002,05,31,08,30,14.50
2002,05,31,08,31,14.60
2002,05,31,08,32,14.60
2002,05,31,08,33,14.60
2002,05,31,08,34,14.80
2002,05,31,08,35,14.80
2002,05,31,08,36,14.90
2002,05,31,08,37,15.10
2002,05,31,08,38,15.20
2002,05,31,08,39,15.30
2002,05,31,08,40,15.30
2002,05,31,08,41,15.10
2002,05,31,08,42,14.80
2002,05,31,08,43,14.50
2002,05,31,08,44,14.10
2002,05,31,08,45,13.80
2002,05,31,08,46,13.50
2002,05,31,08,47,13.40
2002,05,31,08,48,13.40
2002,05,31,08,49,13.30
2002,05,31,08,50,13.20
2002,05,31,08,51,13.10
2002,05,31,08,52,13.00
2002,05,31,08,53,13.00
2002,05,31,08,54,13.00
2002,05,31,08,55,12.90
2002,05,31,08,56,12.90
2002,05,31,08,57,12.80
2002,05,31,08,58,13.00
2002,05,31,08,59,13.00
2002,05,31,09,00,12.90
2002,05,31,09,01,12.90
2002,05,31,09,02,12.90
2002,05,31,09,03,12.80
2002,05,31,09,04,12.80
2002,05,31,09,05,12.80
2002,05,31,09,06,12.90
2002,05,31,09,07,12.80
2002,05,31,09,08,12.80
2002,05,31,09,09,12.90
2002,05,31,09,10,12.90
2002,05,31,09,11,12.80
2002,05,31,09,12,12.80
2002,05,31,09,13,12.70
2002,05,31,09,14,12.60
2002,05,31,09,15,12.70
2002,05,31,09,16,12.80
2002,05,31,09,17,12.80
2002,05,31,09,18,13.10
2002,05,31,09,19,13.30
2002,05,31,09,20,13.40
2002,05,31,09,21,13.50
2002,05,31,09,22,13.50
2002,05,31,09,23,13.30
2002,05,31,09,24,13.20
2002,05,31,09,25,13.00
2002,05,31,09,26,13.00
2002,05,31,09,27,12.90
2002,05,31,09,28,12.90
2002,05,31,09,29,12.90
2002,05,31,09,30,13.10
2002,05,31,09,31,13.10
2002,05,31,09,32,13.00
2002,05,31,09,33,13.10
2002,05,31,09,34,13.20
2002,05,31,09,35,13.00
2002,05,31,09,36,13.00
2002,05,31,09,37,12.90
2002,05,31,09,38,12.80
2002,05,31,09,39,12.80
2002,05,31,09,40,12.80
2002,05,31,09,41,12.80
2002,05,31,09,42,12.80
2002,05,31,09,43,12.80
2002,05,31,09,44,13.00
2002,05,31,09,45,13.00
2002,05,31,09,46,13.10
2002,05,31,09,47,13.10
2002,05,31,09,48,13.20
2002,05,31,09,49,13.10
2002,05,31,09,50,13.00
2002,05,31,09,51,13.00
2002,05,31,09,52,13.10
2002,05,31,09,53,13.10
2002,05,31,09,54,13.10
2002,05,31,09,55,13.00
2002,05,31,09,56,13.00
2002,05,31,09,57,13.00
2002,05,31,09,58,13.10
2002,05,31,09,59,13.30
2002,05,31,10,00,13.20
2002,05,31,10,01,13.20
2002,05,31,10,02,13.20
2002,05,31,10,03,13.10
2002,05,31,10,04,13.10
2002,05,31,10,05,13.00
2002,05,31,10,06,13.00
2002,05,31,10,07,13.10
2002,05,31,10,08,13.10
2002,05,31,10,09,13.10
2002,05,31,10,10,13.10
2002,05,31,10,11,13.10
2002,05,31,10,12,13.10
2002,05,31,10,13,13.20
2002,05,31,10,14,13.40
2002,05,31,10,15,13.50
2002,05,31,10,16,13.60
2002,05,31,10,17,13.60
2002,05,31,10,18,13.60
2002,05,31,10,19,13.50
2002,05,31,10,20,13.40
2002,05,31,10,21,13.40
2002,05,31,10,22,13.40
2002,05,31,10,23,13.30
2002,05,31,10,24,13.30
2002,05,31,10,25,13.30
2002,05,31,10,26,13.40
2002,05,31,10,27,13.40
2002,05,31,10,28,13.30
2002,05,31,10,29,13.30
2002,05,31,10,30,13.30
2002,05,31,10,31,13.30
2002,05,31,10,32,13.30
2002,05,31,10,33,13.50
2002,05,31,10,34,13.40
2002,05,31,10,35,13.50
2002,05,31,10,36,13.70
2002,05,31,10,37,13.80
2002,05,31,10,38,13.90
2002,05,31,10,39,13.90
2002,05,31,10,40,13.80
2002,05,31,10,41,13.70
2002,05,31,10,42,13.70
2002,05,31,10,43,13.60
2002,05,31,10,44,13.60
2002,05,31,10,45,13.80
2002,05,31,10,46,13.90
2002,05,31,10,47,14.10
2002,05,31,10,48,14.30
2002,05,31,10,49,14.40
2002,05,31,10,50,14.50
2002,05,31,10,51,14.50
2002,05,31,10,52,14.60
2002,05,31,10,53,14.30
2002,05,31,10,54,14.10
2002,05,31,10,55,14.10
2002,05,31,10,56,14.10
2002,05,31,10,57,13.90
2002,05,31,10,58,13.80
2002,05,31,10,59,13.70
2002,05,31,11,00,13.80
2002,05,31,11,01,13.90
2002,05,31,11,02,13.90
2002,05,31,11,03,13.90
2002,05,31,11,04,13.80
2002,05,31,11,05,13.70
2002,05,31,11,06,13.70
2002,05,31,11,07,13.70
2002,05,31,11,08,13.90
2002,05,31,11,09,14.00
2002,05,31,11,10,14.00
2002,05,31,11,11,13.90
2002,05,31,11,12,13.80
2002,05,31,11,13,13.80
2002,05,31,11,14,13.90
2002,05,31,11,15,14.10
2002,05,31,11,16,14.10
2002,05,31,11,17,14.10
2002,05,31,11,18,14.10
2002,05,31,11,19,13.90
2002,05,31,11,20,13.90
2002,05,31,11,21,13.80
2002,05,31,11,22,13.90
2002,05,31,11,23,13.90
2002,05,31,11,24,13.90
2002,05,31,11,25,13.90
2002,05,31,11,26,13.90
2002,05,31,11,27,13.90
2002,05,31,11,28,14.00
2002,05,31,11,29,14.00
2002,05,31,11,30,14.00
2002,05,31,11,31,14.10
2002,05,31,11,32,14.20
2002,05,31,11,33,14.20
2002,05,31,11,34,14.20
2002,05,31,11,35,14.20
2002,05,31,11,36,14.20
2002,05,31,11,37,14.30
2002,05,31,11,38,14.30
2002,05,31,11,39,14.40
2002,05,31,11,40,14.50
2002,05,31,11,41,14.40
2002,05,31,11,42,14.40
2002,05,31,11,43,14.40
2002,05,31,11,44,14.30
2002,05,31,11,45,14.30
2002,05,31,11,46,14.40
2002,05,31,11,47,14.50
2002,05,31,11,48,14.50
2002,05,31,11,49,14.50
2002,05,31,11,50,14.50
2002,05,31,11,51,14.60
2002,05,31,11,52,14.60
2002,05,31,11,53,14.70
2002,05,31,11,54,14.80
2002,05,31,11,55,14.80
2002,05,31,11,56,15.00
2002,05,31,11,57,15.00
2002,05,31,11,58,15.10
2002,05,31,11,59,15.10
2002,05,31,12,00,15.00
2002,05,31,12,01,14.90
2002,05,31,12,02,14.90
2002,05,31,12,03,14.90
2002,05,31,12,04,14.70
2002,05,31,12,05,14.60
2002,05,31,12,06,14.70
2002,05,31,12,07,14.60
2002,05,31,12,08,14.70
2002,05,31,12,09,14.80
2002,05,31,12,10,14.80
2002,05,31,12,11,14.80
2002,05,31,12,12,14.80
2002,05,31,12,13,14.80
2002,05,31,12,14,14.60
2002,05,31,12,15,14.60
2002,05,31,12,16,14.60
2002,05,31,12,17,14.50
2002,05,31,12,18,14.60
2002,05,31,12,19,14.50
2002,05,31,12,20,14.60
2002,05,31,12,21,14.70
2002,05,31,12,22,14.70
2002,05,31,12,23,14.60
2002,05,31,12,24,14.60
2002,05,31,12,25,14.60
2002,05,31,12,26,14.60
2002,05,31,12,27,14.50
2002,05,31,12,28,14.50
2002,05,31,12,29,14.30
2002,05,31,12,30,14.30
2002,05,31,12,31,14.40
2002,05,31,12,32,14.50
2002,05,31,12,33,14.70
2002,05,31,12,34,14.80
2002,05,31,12,35,14.90
2002,05,31,12,36,14.90
2002,05,31,12,37,14.90
2002,05,31,12,38,14.90
2002,05,31,12,39,14.80
2002,05,31,12,40,14.80
2002,05,31,12,41,14.70
2002,05,31,12,42,14.90
2002,05,31,12,43,15.00
2002,05,31,12,44,15.00
2002,05,31,12,45,14.80
2002,05,31,12,46,14.80
2002,05,31,12,47,14.80
2002,05,31,12,48,14.90
2002,05,31,12,49,15.00
2002,05,31,12,50,15.00
2002,05,31,12,51,15.20
2002,05,31,12,52,15.20
2002,05,31,12,53,15.10
2002,05,31,12,54,15.00
2002,05,31,12,55,14.90
2002,05,31,12,56,14.90
2002,05,31,12,57,15.00
2002,05,31,12,58,15.10
2002,05,31,12,59,15.20
2002,05,31,13,00,15.10
2002,05,31,13,01,15.00
2002,05,31,13,02,14.80
2002,05,31,13,03,14.80
2002,05,31,13,04,14.90
2002,05,31,13,05,15.10
2002,05,31,13,06,15.30
2002,05,31,13,07,15.20
2002,05,31,13,08,15.10
2002,05,31,13,09,15.10
2002,05,31,13,10,15.20
2002,05,31,13,11,15.30
2002,05,31,13,12,15.40
2002,05,31,13,13,15.50
2002,05,31,13,14,15.50
2002,05,31,13,15,15.50
2002,05,31,13,16,15.60
2002,05,31,13,17,15.60
2002,05,31,13,18,15.50
2002,05,31,13,19,15.40
2002,05,31,13,20,15.30
2002,05,31,13,21,15.20
2002,05,31,13,22,15.30
2002,05,31,13,23,15.30
2002,05,31,13,24,15.40
2002,05,31,13,25,15.40
2002,05,31,13,26,15.50
2002,05,31,13,27,15.50
2002,05,31,13,28,15.50
2002,05,31,13,29,15.60
2002,05,31,13,30,15.50
2002,05,31,13,31,15.60
2002,05,31,13,32,15.60
2002,05,31,13,33,15.40
2002,05,31,13,34,15.30
2002,05,31,13,35,15.30
2002,05,31,13,36,15.30
2002,05,31,13,37,15.20
2002,05,31,13,38,15.10
2002,05,31,13,39,15.10
2002,05,31,13,40,15.20
2002,05,31,13,41,15.40
2002,05,31,13,42,15.40
2002,05,31,13,43,15.50
2002,05,31,13,44,15.50
2002,05,31,13,45,15.60
2002,05,31,13,46,15.70
2002,05,31,13,47,15.80
2002,05,31,13,48,15.80
2002,05,31,13,49,15.80
2002,05,31,13,50,15.70
2002,05,31,13,51,15.60
2002,05,31,13,52,15.70
2002,05,31,13,53,15.70
2002,05,31,13,54,15.90
2002,05,31,13,55,16.20
2002,05,31,13,56,16.10
2002,05,31,13,57,15.90
2002,05,31,13,58,15.90
2002,05,31,13,59,15.90
2002,05,31,14,00,16.00
2002,05,31,14,01,16.10
2002,05,31,14,02,16.00
2002,05,31,14,03,15.80
2002,05,31,14,04,15.70
2002,05,31,14,05,15.60
2002,05,31,14,06,15.70
2002,05,31,14,07,15.70
2002,05,31,14,08,15.70
2002,05,31,14,09,15.60
2002,05,31,14,10,15.60
2002,05,31,14,11,15.70
2002,05,31,14,12,15.60
2002,05,31,14,13,15.60
2002,05,31,14,14,15.60
2002,05,31,14,15,15.60
2002,05,31,14,16,15.70
2002,05,31,14,17,15.80
2002,05,31,14,18,16.00
2002,05,31,14,19,16.20
2002,05,31,14,20,16.30
2002,05,31,14,21,16.30
2002,05,31,14,22,16.40
2002,05,31,14,23,16.50
2002,05,31,14,24,16.50
2002,05,31,14,25,16.40
2002,05,31,14,26,16.30
2002,05,31,14,27,16.30
2002,05,31,14,28,16.30
2002,05,31,14,29,16.30
2002,05,31,14,30,16.30
2002,05,31,14,31,16.10
2002,05,31,14,32,16.00
2002,05,31,14,33,16.00
2002,05,31,14,34,15.90
2002,05,31,14,35,15.80
2002,05,31,14,36,15.80
2002,05,31,14,37,15.90
2002,05,31,14,38,16.10
2002,05,31,14,39,16.00
2002,05,31,14,40,15.90
2002,05,31,14,41,15.90
2002,05,31,14,42,15.90
2002,05,31,14,43,15.90
2002,05,31,14,44,15.80
2002,05,31,14,45,15.80
2002,05,31,14,46,15.90
2002,05,31,14,47,15.80
2002,05,31,14,48,16.00
2002,05,31,14,49,16.10
2002,05,31,14,50,16.10
2002,05,31,14,51,16.20
2002,05,31,14,52,16.30
2002,05,31,14,53,16.40
2002,05,31,14,54,16.40
2002,05,31,14,55,16.30
2002,05,31,14,56,16.40
2002,05,31,14,57,16.40
2002,05,31,14,58,16.30
2002,05,31,14,59,16.10
2002,05,31,15,00,16.10
2002,05,31,15,01,16.30
2002,05,31,15,02,16.40
2002,05,31,15,03,16.50
2002,05,31,15,04,16.50
2002,05,31,15,05,16.40
2002,05,31,15,06,16.30
2002,05,31,15,07,16.20
2002,05,31,15,08,16.20
2002,05,31,15,09,16.20
2002,05,31,15,10,16.30
2002,05,31,15,11,16.40
2002,05,31,15,12,16.30
2002,05,31,15,13,16.40
2002,05,31,15,14,16.30
2002,05,31,15,15,16.40
2002,05,31,15,16,16.40
2002,05,31,15,17,16.50
2002,05,31,15,18,16.60
2002,05,31,15,19,16.70
2002,05,31,15,20,16.90
2002,05,31,15,21,17.10
2002,05,31,15,22,17.20
2002,05,31,15,23,17.20
2002,05,31,15,24,17.10
2002,05,31,15,25,16.90
2002,05,31,15,26,16.80
2002,05,31,15,27,16.70
2002,05,31,15,28,16.60
2002,05,31,15,29,16.40
2002,05,31,15,30,16.40
2002,05,31,15,31,16.40
2002,05,31,15,32,16.30
2002,05,31,15,33,16.30
2002,05,31,15,34,16.60
2002,05,31,15,35,16.90
2002,05,31,15,36,16.90
2002,05,31,15,37,17.00
2002,05,31,15,38,17.10
2002,05,31,15,39,17.00
2002,05,31,15,40,17.00
2002,05,31,15,41,17.20
2002,05,31,15,42,17.30
2002,05,31,15,43,17.40
2002,05,31,15,44,17.60
2002,05,31,15,45,17.70
2002,05,31,15,46,17.80
2002,05,31,15,47,18.00
2002,05,31,15,48,18.00
2002,05,31,15,49,17.80
2002,05,31,15,50,17.70
2002,05,31,15,51,17.80
2002,05,31,15,52,18.00
2002,05,31,15,53,18.10
2002,05,31,15,54,18.10
2002,05,31,15,55,18.40
2002,05,31,15,56,18.60
2002,05,31,15,57,18.70
2002,05,31,15,58,18.70
2002,05,31,15,59,18.90
2002,05,31,16,00,19.00
2002,05,31,16,01,19.10
2002,05,31,16,02,19.30
2002,05,31,16,03,19.20
2002,05,31,16,04,19.20
2002,05,31,16,05,19.10
2002,05,31,16,06,18.70
2002,05,31,16,07,18.80
2002,05,31,16,08,18.70
2002,05,31,16,09,18.70
2002,05,31,16,10,18.70
2002,05,31,16,11,18.80
2002,05,31,16,12,18.90
2002,05,31,16,13,19.00
2002,05,31,16,14,19.10
2002,05,31,16,15,19.00
2002,05,31,16,16,18.80
2002,05,31,16,17,18.60
2002,05,31,16,18,18.50
2002,05,31,16,19,18.40
2002,05,31,16,20,18.60
2002,05,31,16,21,18.60
2002,05,31,16,22,18.60
2002,05,31,16,23,18.50
2002,05,31,16,24,18.30
2002,05,31,16,25,18.00
2002,05,31,16,26,18.00
2002,05,31,16,27,18.10
2002,05,31,16,28,18.20
2002,05,31,16,29,18.30
2002,05,31,16,30,18.30
2002,05,31,16,31,18.30
2002,05,31,16,32,18.40
2002,05,31,16,33,18.50
2002,05,31,16,34,18.50
2002,05,31,16,35,18.40
2002,05,31,16,36,18.30
2002,05,31,16,37,18.30
2002,05,31,16,38,18.50
2002,05,31,16,39,18.60
2002,05,31,16,40,18.80
2002,05,31,16,41,18.90
2002,05,31,16,42,19.10
2002,05,31,16,43,18.90
2002,05,31,16,44,19.00
2002,05,31,16,45,19.10
2002,05,31,16,46,19.10
2002,05,31,16,47,19.20
2002,05,31,16,48,19.10
2002,05,31,16,49,18.60
2002,05,31,16,50,18.40
2002,05,31,16,51,18.20
2002,05,31,16,52,18.20
2002,05,31,16,53,18.20
2002,05,31,16,54,18.20
2002,05,31,16,55,18.30
2002,05,31,16,56,18.40
2002,05,31,16,57,18.40
2002,05,31,16,58,18.40
2002,05,31,16,59,18.40
2002,05,31,17,00,18.30
2002,05,31,17,01,18.40
2002,05,31,17,02,18.70
2002,05,31,17,03,18.90
2002,05,31,17,04,19.00
2002,05,31,17,05,19.20
2002,05,31,17,06,19.10
2002,05,31,17,07,19.20
2002,05,31,17,08,19.30
2002,05,31,17,09,19.30
2002,05,31,17,10,19.40
2002,05,31,17,11,19.50
2002,05,31,17,12,19.70
2002,05,31,17,13,19.70
2002,05,31,17,14,19.70
2002,05,31,17,15,19.80
2002,05,31,17,16,19.80
2002,05,31,17,17,19.90
2002,05,31,17,18,19.80
2002,05,31,17,19,19.70
2002,05,31,17,20,19.70
2002,05,31,17,21,19.80
2002,05,31,17,22,19.80
2002,05,31,17,23,19.80
2002,05,31,17,24,19.90
2002,05,31,17,25,19.90
2002,05,31,17,26,19.60
2002,05,31,17,27,19.50
2002,05,31,17,28,19.40
2002,05,31,17,29,19.30
2002,05,31,17,30,19.30
2002,05,31,17,31,19.30
2002,05,31,17,32,19.30